This is the latest recevied weather packets stored in our database for station/object KD0RII. If no packets are shown the sender has not sent any weather packets the latest 10 day(s).
| Time | Temp. | Humidity | Pressure | Rain* | Wind** | Luminosity | Snow |
|---|---|---|---|---|---|---|---|
| 1777820108 | 19.44° C | 52% | 1015.8 hPa | 0 mm | - | 412 W/m² | - |
| 1777819805 | 18.89° C | 53% | 1015.7 hPa | 0 mm | - | 394 W/m² | - |
| 1777819503 | 19.44° C | 51% | 1015.9 hPa | 0 mm | - | 381 W/m² | - |
| 1777819200 | 18.89° C | 52% | 1015.9 hPa | 0 mm | - | 368 W/m² | - |
| 1777818897 | 18.89° C | 51% | 1015.8 hPa | 0 mm | - | 352 W/m² | - |
| 1777818593 | 18.33° C | 54% | 1015.9 hPa | 0 mm | - | 68 W/m² | - |
| 1777818290 | 17.78° C | 52% | 1015.8 hPa | 0 mm | - | 220 W/m² | - |
| 1777817986 | 17.78° C | 53% | 1015.7 hPa | 0 mm | - | 237 W/m² | - |
| 1777817684 | 17.22° C | 55% | 1015.7 hPa | 0 mm | - | 267 W/m² | - |
| 1777817381 | 16.67° C | 54% | 1015.9 hPa | 0 mm | - | 148 W/m² | - |
| 1777817077 | 16.11° C | 56% | 1015.8 hPa | 0 mm | - | 252 W/m² | - |
| 1777816773 | 15.56° C | 58% | 1016 hPa | 0 mm | - | 233 W/m² | - |
| 1777816467 | 15° C | 58% | 1015.8 hPa | 0 mm | - | 107 W/m² | - |
| 1777816163 | 15° C | 59% | 1016 hPa | 0 mm | - | 85 W/m² | - |
| 1777815861 | 14.44° C | 60% | 1016.1 hPa | 0 mm | - | 72 W/m² | - |
| 1777815558 | 14.44° C | 60% | 1016.1 hPa | 0 mm | - | 57 W/m² | - |
| 1777815257 | 13.89° C | 61% | 1016 hPa | 0 mm | - | 52 W/m² | - |
| 1777814951 | 13.89° C | 60% | 1016.2 hPa | 0 mm | - | 67 W/m² | - |
| 1777814648 | 13.33° C | 61% | 1015.9 hPa | 0 mm | - | 65 W/m² | - |
| 1777814344 | 12.78° C | 61% | 1015.9 hPa | 0 mm | - | 51 W/m² | - |
| 1777814041 | 12.22° C | 63% | 1015.9 hPa | 0 mm | - | 87 W/m² | - |
| 1777813739 | 12.22° C | 64% | 1015.9 hPa | 0 mm | - | 43 W/m² | - |
| 1777813436 | 11.67° C | 64% | 1016 hPa | 0 mm | - | 54 W/m² | - |
| 1777813133 | 11.67° C | 65% | 1016.1 hPa | 0 mm | - | 41 W/m² | - |
| 1777812831 | 11.11° C | 67% | 1016.3 hPa | 0 mm | - | 42 W/m² | - |
* Rain latest hour (hover to see other rain measurements)
** Current wind speed in m/s (hover to see current wind gust speed)